RH
16 16 19 21 24 28 28 24 22 22 23 26 26 25 22 21 21 15 12 12 12 11 12 11 10 12 12 13 14 15 15 15 16 18 20 22 25 27 29 32 29 33 33 36
17 20 22 24 26 27 26 24 24 27 22 21 28 23 22 19 14 13 14 14 14 14 14 14 14 15 17 18 20 21 23 23 23 25 23 26 28 30 32 38 43 44 53 59
17 18 22 23 26 29 27 28 27 26 25 18 25 27 13 18 14 14 17 16 16 18 18 20 26 31 33 38 41 44 44 43 41 40 42 39 40 47 48 51 56 54 56 64
17 20 21 23 23 24 26 25 26 27 28 26 22 34 61 23 17 19 22 25 28 30 31 36 38 38 40 42 46 52 56 53 50 48 52 64 58 55 63 73 75 77 70 74
21 21 20 21 23 24 24 23 24 26 27 29 27 27 54 52 46 34 29 31 37 43 39 42 45 45 49 52 54 58 60 60 60 60 57 58 77 73 84 94 93 92 93 90
20 20 19 20 20 23 23 22 24 23 28 32 31 35 39 64 79 44 49 58 44 41 46 53 56 57 61 54 54 61 65 66 67 68 69 68 68 83 88 92 94 94 92 98
20 12 18 21 22 19 22 24 24 27 35 37 48 35 43 53 70 71 76 61 51 47 53 40 37 41 54 53 58 61 61 64 70 76 81 77 80 84 92 93 88 83 79 88
21 20 15 21 22 24 28 33 34 34 34 34 40 44 46 66 84 81 72 71 57 42 42 40 41 44 46 49 60 69 65 65 69 67 71 79 84 87 92 92 83 78 92 98
20 20 20 27 30 31 36 35 38 37 40 36 36 46 55 81 99 99 94 88 62 67 54 46 45 48 47 58 63 68 69 74 80 92 92 92 94 92 89 86 76 82 88 99
14 20 30 32 35 33 37 38 39 40 39 41 43 52 55 90 94 94 99 99 80 70 55 53 53 58 61 77 76 72 73 84 96 100 100 100 99 93 80 70 73 81 94 100
22 23 29 35 38 38 40 43 50 48 58 57 45 42 73 74 65 66 64 66 68 71 67 61 65 68 68 79 78 76 75 84 88 94 95 99 97 80 60 70 85 100 100 100
34 36 33 40 43 45 47 55 60 64 53 56 46 29 60 67 76 73 82 78 69 66 65 70 81 84 76 77 82 84 75 74 79 83 94 87 83 58 53 70 92 100 100 100
42 36 35 43 46 36 37 48 55 58 60 53 65 37 75 78 79 77 72 67 65 67 74 77 84 76 76 82 87 83 79 75 78 84 77 69 56 53 62 76 90 100 100 100
38 44 43 51 48 44 44 49 63 70 56 57 67 60 74 85 80 74 71 65 66 68 67 66 86 76 84 80 80 82 84 82 76 67 64 52 49 64 73 86 100 100 100 100
64 56 54 63 55 55 54 52 73 78 78 71 64 84 81 79 75 67 67 62 64 61 65 76 81 89 86 77 89 99 98 81 68 66 54 46 63 73 91 100 100 100 100 93
54 47 47 48 50 52 49 64 63 61 65 67 66 60 83 73 68 64 66 69 62 67 62 75 85 82 91 96 98 98 92 75 67 54 48 67 75 84 93 100 100 94 97 96
43 50 49 42 50 50 50 60 60 55 69 78 77 76 73 69 64 67 66 60 62 62 66 68 68 79 83 88 93 95 81 63 54 51 66 84 97 100 100 100 100 100 94 47
58 63 60 57 54 50 60 74 79 75 73 88 85 80 68 65 64 78 82 84 71 66 72 77 79 85 96 100 100 80 60 58 51 67 90 100 100 100 100 100 100 81 22 16
63 66 67 66 61 50 55 79 81 81 76 89 78 82 97 85 81 80 85 86 93 96 86 89 92 93 94 95 73 67 67 46 56 89 100 100 100 100 100 98 63 19 19 18
66 67 71 72 63 47 60 77 74 78 69 99 96 100 98 100 83 73 72 73 63 71 82 94 99 100 93 76 75 62 37 46 74 100 100 100 100 98 92 55 21 21 19 16
74 78 77 79 72 52 72 70 82 95 100 94 98 100 100 94 94 83 66 61 65 80 97 100 98 93 81 75 47 35 45 65 88 97 100 100 100 96 57 24 24 20 16 12
85 87 91 78 79 66 87 97 100 100 87 98 92 94 94 100 86 65 68 86 96 79 91 96 88 82 66 39 35 57 76 94 99 98 100 98 96 67 28 28 22 16 12 12
80 100 89 91 91 84 83 96 77 99 100 94 88 84 100 88 72 73 85 96 95 100 100 85 79 50 33 32 66 85 100 100 100 100 100 99 75 38 34 24 16 13 12 15
72 100 90 74 71 79 70 81 85 94 89 85 97 100 80 73 73 85 81 96 99 94 78 53 32 26 31 69 88 100 100 100 100 100 100 82 45 38 28 18 13 13 13 21
89 98 97 56 58 63 61 73 81 90 100 93 95 83 82 92 100 100 100 98 97 92 68 27 20 32 81 87 98 100 100 100 100 100 84 49 40 29 18 14 13 14 22 22
95 100 96 71 70 76 62 64 62 74 97 86 75 64 78 100 100 94 92 88 85 57 17 16 37 78 91 100 100 100 100 100 100 80 50 41 29 17 14 13 15 17 41 22
Wind_Speed
6 7 9 8 7 5 5 5 6 8 10 13 14 13 11 13 15 14 12 16 16 18 19 23 21 22 24 28 29 32 35 36 36 41 43 46 48 49 51 52 55 55 58 60
7 6 7 7 8 8 7 5 5 9 11 10 15 16 13 15 16 15 14 16 18 19 20 22 25 26 30 33 36 39 42 44 45 46 50 51 53 54 57 59 62 63 63 63
11 10 8 10 10 10 11 8 8 10 10 13 12 19 21 17 18 17 18 21 21 22 25 25 25 29 32 35 38 42 46 49 51 52 55 56 56 58 60 64 66 67 69 71
12 12 12 10 11 11 14 13 12 12 15 14 15 11 18 26 21 20 22 23 26 28 27 29 31 34 40 41 41 44 49 49 50 53 54 56 59 60 61 64 68 71 74 74
14 16 16 13 12 14 14 16 16 15 16 16 17 17 16 24 28 28 30 30 31 35 36 38 39 41 43 45 48 48 51 50 51 56 57 58 58 60 63 67 71 74 73 71
20 19 19 15 15 14 16 16 20 20 19 17 18 17 12 16 30 34 36 40 43 41 39 38 41 42 45 50 51 52 53 52 54 56 59 60 60 62 67 71 72 70 67 65
23 21 16 19 17 18 16 20 20 21 24 21 29 29 28 20 30 33 40 45 46 45 47 44 46 48 50 54 54 57 56 56 56 57 59 61 63 66 69 70 71 71 67 62
22 29 22 16 18 19 19 24 25 27 28 27 23 31 25 31 35 44 50 49 57 56 58 56 55 55 56 58 56 56 62 64 63 64 63 65 64 67 68 70 71 64 61 60
24 24 22 16 20 22 24 25 29 33 34 38 36 36 31 26 31 43 45 53 60 60 60 60 59 63 61 59 62 66 62 64 63 64 66 65 67 69 72 70 67 62 62 61
22 18 20 24 23 24 25 28 32 37 40 45 42 40 33 35 35 37 40 45 55 59 61 62 64 65 64 63 66 66 66 64 65 65 64 67 71 74 73 68 64 62 61 59
18 20 22 25 27 28 31 31 34 38 40 46 49 44 40 35 40 44 49 54 56 61 64 65 64 65 66 66 66 66 66 63 61 64 68 71 72 73 68 65 63 61 59 57
18 21 23 26 30 34 33 32 34 42 45 46 47 48 35 42 47 53 54 58 60 61 62 62 62 67 65 65 64 65 64 64 67 70 72 72 75 75 67 62 60 58 57 54
26 30 32 30 39 41 38 34 35 41 48 51 53 52 43 46 48 52 57 59 59 61 60 62 65 67 65 65 64 65 68 71 72 73 75 78 79 69 63 61 59 57 53 53
34 31 35 35 35 43 44 39 35 38 47 51 53 56 53 51 56 59 60 61 60 60 64 63 63 64 65 65 65 69 73 75 76 77 80 83 73 65 64 59 55 52 50 51
36 33 37 35 38 44 47 45 41 40 41 50 53 54 53 56 59 64 62 63 64 65 62 61 64 66 67 69 71 75 77 79 79 82 84 80 69 65 59 54 50 49 50 52
43 41 43 42 38 47 52 46 49 52 52 53 55 57 54 58 63 66 62 64 65 63 65 66 67 68 69 74 76 77 82 82 83 86 81 71 67 62 54 50 50 50 53 58
42 44 48 53 49 51 51 56 51 56 57 55 57 58 62 66 66 65 65 64 64 66 68 71 72 74 76 79 81 81 83 84 85 80 73 68 62 54 51 50 52 55 59 62
45 46 51 57 56 59 60 50 50 54 55 56 61 62 62 60 63 63 66 68 69 71 73 74 75 77 80 82 82 83 84 85 80 73 67 59 54 51 50 51 55 59 60 62
42 49 53 55 55 59 58 50 53 58 59 58 62 58 56 66 66 63 66 68 72 76 77 78 80 83 83 83 84 84 85 81 75 66 59 54 51 50 51 55 58 59 61 64
50 51 52 51 53 55 52 49 56 57 59 53 59 61 61 66 67 68 72 74 76 78 81 83 82 81 83 83 85 85 81 74 63 57 52 50 50 51 55 57 57 59 63 65
52 52 50 49 52 56 52 56 58 48 43 56 65 59 64 68 69 71 73 75 77 79 81 80 82 84 83 85 84 81 72 63 56 52 50 50 51 55 56 56 58 61 63 61
52 52 51 55 57 57 56 56 52 55 60 65 64 67 64 69 73 75 78 78 79 79 80 81 83 83 85 83 78 70 63 56 52 51 49 50 55 55 55 57 60 62 61 53
53 53 53 53 57 50 51 56 59 56 58 63 68 63 69 73 78 78 77 77 79 80 81 82 82 82 78 75 67 61 56 52 50 49 49 53 55 54 56 59 60 59 54 43
62 54 56 58 53 57 59 58 58 58 63 65 64 70 76 81 79 77 78 79 81 81 80 80 78 76 73 66 59 55 52 51 50 50 53 54 54 55 58 60 58 53 44 33
61 57 55 65 64 64 61 61 61 62 62 70 70 76 80 78 76 79 80 81 81 83 82 77 72 68 63 59 55 52 51 49 50 54 54 54 56 58 59 56 52 43 34 29
59 60 63 69 67 70 68 66 68 68 68 73 79 81 78 75 78 79 81 81 81 80 73 68 64 60 56 54 52 50 48 50 54 54 55 57 59 59 55 49 41 33 29 26
Wind_Direction
358 358 6 355 352 342 327 336 334 335 327 316 320 326 325 337 339 332 331 331 330 328 327 326 321 316 315 314 313 311 311 310 307 305 305 304 304 303 302 301 298 298 296 296
336 335 347 338 334 328 319 324 332 329 330 322 313 311 308 321 337 326 316 320 322 319 319 319 320 318 315 314 313 313 311 308 305 303 300 299 298 297 297 298 297 296 295 296
328 324 327 323 321 316 303 302 307 328 324 328 302 313 329 328 329 326 318 316 314 315 315 315 315 317 319 318 317 316 315 310 306 303 301 299 298 299 299 300 300 298 298 299
323 315 310 308 306 306 296 292 294 306 316 310 310 293 300 308 313 311 305 311 313 314 311 311 310 312 314 312 313 311 313 310 305 302 299 298 297 296 297 298 297 297 297 298
318 318 310 306 310 311 302 300 300 300 296 302 300 300 285 287 300 308 308 308 308 308 306 306 308 309 312 312 314 312 311 308 305 303 302 300 298 299 299 300 300 300 302 302
307 312 311 305 305 306 308 308 309 313 309 308 292 308 319 284 282 298 312 309 306 306 307 305 301 305 309 312 315 314 312 309 306 304 302 300 299 299 300 301 302 303 304 303
304 303 312 301 302 303 301 302 304 305 308 317 305 318 323 307 279 301 308 310 309 313 310 304 307 311 312 312 314 312 309 307 304 301 301 300 300 299 303 303 303 306 305 300
302 308 315 303 305 306 308 310 313 309 306 302 297 305 324 321 311 315 317 318 314 320 319 319 318 315 313 315 315 313 310 309 308 306 305 303 303 303 304 306 308 307 301 297
300 301 304 309 308 308 312 314 313 312 308 306 312 315 332 316 311 311 314 312 317 316 312 316 316 316 316 317 313 312 311 309 308 307 307 306 305 307 309 311 309 305 301 295
297 298 306 306 306 303 304 306 308 309 309 308 310 311 328 324 312 306 305 299 303 304 310 313 316 315 316 316 312 311 310 309 309 309 308 309 311 312 314 311 306 302 298 291
297 302 305 306 310 310 310 311 312 308 310 308 310 314 321 316 304 303 306 306 307 308 312 314 315 313 312 310 309 308 310 312 311 310 311 314 314 316 314 307 304 300 296 290
293 297 301 302 304 303 302 308 311 308 308 304 306 311 325 316 313 312 309 305 307 307 309 313 311 307 308 308 309 310 311 312 313 313 315 314 315 317 313 307 304 300 297 291
292 294 297 298 301 298 299 304 306 304 304 306 304 312 312 310 304 303 301 304 310 310 311 311 309 310 312 315 313 312 313 315 315 315 313 315 318 316 311 309 305 301 297 293
292 295 296 299 299 298 301 302 303 299 300 302 300 304 309 307 306 306 308 313 310 309 311 311 309 312 314 315 315 315 315 315 314 314 315 316 318 314 311 309 303 300 297 295
300 303 300 302 305 301 300 306 306 302 298 294 303 303 308 310 309 309 312 312 310 312 313 312 314 315 314 316 317 316 314 314 314 316 317 318 317 314 312 307 303 299 298 300
297 300 298 298 298 296 298 307 309 308 304 303 305 305 313 307 308 309 310 313 315 317 319 317 315 314 314 316 317 315 315 315 316 316 318 317 315 314 311 306 303 304 305 303
300 304 303 301 304 300 304 309 313 309 312 311 311 313 313 312 311 312 315 317 319 319 318 317 316 316 315 315 315 314 315 315 317 317 317 316 315 312 308 307 308 305 306 304
303 304 304 304 306 303 307 321 315 308 312 316 310 310 308 310 315 316 316 316 317 316 316 315 315 314 313 313 314 315 315 316 317 317 316 313 310 308 309 308 308 309 308 308
298 302 305 304 304 303 306 322 315 311 311 310 311 314 317 311 315 316 314 314 314 315 315 314 313 312 312 313 314 314 315 315 316 315 312 311 310 309 309 311 311 310 311 311
303 306 306 307 304 303 316 313 306 312 315 318 313 311 309 309 313 316 317 316 316 314 312 311 311 310 311 312 312 313 314 314 314 311 312 310 310 311 314 313 313 313 313 312
306 305 306 306 307 309 321 315 316 322 310 299 302 307 307 309 313 315 314 313 311 311 310 309 310 311 312 312 312 312 313 314 314 313 312 311 313 315 315 315 315 314 313 313
303 305 308 311 312 315 315 311 306 301 301 301 302 303 305 309 312 313 312 310 308 309 309 309 309 311 312 312 313 314 315 315 314 313 312 314 315 316 316 316 316 314 314 314
302 301 307 312 304 311 307 303 304 300 297 299 300 305 307 310 310 310 309 308 307 307 307 310 311 312 312 312 314 314 314 314 313 312 313 315 316 316 316 317 315 314 314 314
302 307 307 303 308 304 306 308 306 302 304 306 303 307 308 309 310 309 306 303 305 308 311 312 313 312 312 313 313 313 314 313 312 313 315 315 316 316 317 316 314 314 314 319
300 304 306 305 304 306 310 311 310 308 305 305 306 305 307 308 305 303 305 306 308 310 312 312 312 312 312 312 312 312 312 311 313 314 315 316 316 316 316 315 313 313 313 320
298 303 300 300 304 306 309 309 309 308 306 305 304 306 306 302 303 306 307 307 308 309 311 312 311 311 311 310 309 310 311 313 314 315 316 316 316 316 315 313 311 310 314 316